TimeHST,TemperatureF,Dew PointF,Humidity,Sea Level PressureIn,VisibilityMPH,Wind Direction,Wind SpeedMPH,Gust SpeedMPH,PrecipitationIn,Events,Conditions,WindDirDegrees,DateUTC
12:54 AM,70.0,68.0,93,30.02,10.0,NNE,5.8,-,N/A,,Clear,30,2013-07-07 10:54:00
1:54 AM,70.0,66.9,90,30.00,10.0,NE,3.5,-,N/A,,Clear,50,2013-07-07 11:54:00
2:54 AM,66.9,64.9,93,29.99,10.0,Calm,Calm,-,N/A,,Clear,0,2013-07-07 12:54:00
3:54 AM,64.9,64.0,97,29.98,10.0,Calm,Calm,-,N/A,,Clear,0,2013-07-07 13:54:00
4:54 AM,66.9,64.9,93,29.97,10.0,North,4.6,-,N/A,,Clear,10,2013-07-07 14:54:00
5:54 AM,69.1,66.0,90,29.98,10.0,NNE,4.6,-,N/A,,Clear,20,2013-07-07 15:54:00
6:54 AM,73.0,69.1,87,29.99,10.0,NNE,8.1,-,N/A,,Clear,20,2013-07-07 16:54:00
7:54 AM,77.0,66.9,71,30.00,10.0,NNE,6.9,16.1,N/A,,Clear,20,2013-07-07 17:54:00
8:54 AM,78.1,66.0,66,30.00,10.0,NNE,9.2,-,N/A,,Clear,30,2013-07-07 18:54:00
9:54 AM,80.1,69.1,69,30.00,10.0,NNE,11.5,20.7,N/A,,Clear,30,2013-07-07 19:54:00
10:54 AM,81.0,70.0,69,29.99,10.0,NNE,13.8,19.6,N/A,,Scattered Clouds,20,2013-07-07 20:54:00
11:54 AM,82.0,70.0,67,29.97,10.0,NNE,15.0,23.0,N/A,,Scattered Clouds,20,2013-07-07 21:54:00
12:54 PM,80.1,69.1,69,29.97,10.0,North,10.4,18.4,N/A,,Scattered Clouds,10,2013-07-07 22:54:00
1:54 PM,81.0,69.1,67,29.96,10.0,NNE,12.7,16.1,N/A,,Mostly Cloudy,30,2013-07-07 23:54:00
2:54 PM,79.0,70.0,74,29.96,10.0,North,10.4,17.3,N/A,,Mostly Cloudy,10,2013-07-08 00:54:00
3:54 PM,82.9,70.0,65,29.94,10.0,NNW,11.5,18.4,N/A,,Mostly Cloudy,340,2013-07-08 01:54:00
4:54 PM,79.0,70.0,74,29.94,10.0,NE,10.4,-,N/A,,Partly Cloudy,40,2013-07-08 02:54:00
5:54 PM,77.0,70.0,79,29.94,10.0,NE,11.5,21.9,N/A,,Clear,40,2013-07-08 03:54:00
6:54 PM,75.0,70.0,84,29.96,10.0,NE,10.4,18.4,N/A,,Clear,40,2013-07-08 04:54:00
7:54 PM,75.0,69.1,82,29.98,10.0,ENE,9.2,-,N/A,,Clear,60,2013-07-08 05:54:00
8:54 PM,73.9,70.0,87,29.99,10.0,NNE,4.6,-,N/A,,Clear,20,2013-07-08 06:54:00
9:54 PM,72.0,69.1,91,30.00,10.0,North,8.1,-,N/A,,Clear,10,2013-07-08 07:54:00
10:54 PM,72.0,66.9,84,30.01,10.0,NNE,6.9,-,N/A,,Clear,30,2013-07-08 08:54:00
11:54 PM,72.0,66.9,84,30.00,10.0,NNE,5.8,-,N/A,,Clear,20,2013-07-08 09:54:00